| time (UTC) | temp F | wind direction | speed MPH | gust MPH | rain 1hr in | rain 24hr in | rain mn in | humidity % | barometer mb |
| 20260505111328 | 58 | 193 | 0.0 | 1.0 | 0.00 | 0.08 | 0.08 | 80 | 1012.0 |
| 20260505110824 | 57 | 209 | 0.0 | 1.0 | 0.00 | 0.08 | 0.08 | 81 | 1012.0 |
| 20260505110322 | 57 | 205 | 0.0 | 0.0 | 0.00 | 0.08 | 0.08 | 80 | 1011.9 |
| 20260505101756 | 56 | 212 | 0.0 | 0.0 | 0.00 | 0.08 | 0.08 | 86 | 1011.2 |
| 20260505101252 | 55 | 213 | 0.0 | 2.0 | 0.00 | 0.08 | 0.08 | 87 | 1011.2 |
| 20260505100748 | 54 | 251 | 0.0 | 0.0 | 0.00 | 0.08 | 0.08 | 91 | 1011.2 |
| 20260505100245 | 53 | 253 | 0.0 | 0.0 | 0.00 | 0.08 | 0.08 | 94 | 1011.1 |
| 20260505095741 | 53 | 249 | 0.0 | 0.0 | 0.00 | 0.08 | 0.08 | 95 | 1011.3 |
| 20260505095239 | 53 | 249 | 0.0 | 0.0 | 0.00 | 0.08 | 0.08 | 95 | 1011.2 |
| 20260505094734 | 52 | 249 | 0.0 | 0.0 | 0.00 | 0.08 | 0.08 | 95 | 1011.1 |
| 20260505094231 | 52 | 248 | 0.0 | 0.0 | 0.00 | 0.08 | 0.08 | 95 | 1011.2 |
| 20260505093727 | 52 | 218 | 0.0 | 0.0 | 0.00 | 0.08 | 0.08 | 95 | 1011.1 |
| 20260505093225 | 52 | 218 | 0.0 | 0.0 | 0.00 | 0.08 | 0.08 | 94 | 1011.2 |
| 20260505092721 | 53 | 218 | 0.0 | 0.0 | 0.00 | 0.08 | 0.08 | 93 | 1011.1 |
| 20260505092220 | 53 | 218 | 0.0 | 0.0 | 0.00 | 0.08 | 0.08 | 90 | 1011.1 |
| 20260505091717 | 54 | 218 | 0.0 | 0.0 | 0.00 | 0.08 | 0.08 | 90 | 1011.0 |
| 20260505091215 | 55 | 218 | 0.0 | 0.0 | 0.00 | 0.08 | 0.08 | 85 | 1011.2 |
| 20260505090712 | 55 | 218 | 0.0 | 0.0 | 0.00 | 0.08 | 0.08 | 85 | 1011.3 |
| 20260505090210 | 55 | 211 | 0.0 | 0.0 | 0.00 | 0.08 | 0.08 | 86 | 1011.5 |
| 20260505085708 | 55 | 210 | 0.0 | 0.0 | 0.00 | 0.08 | 0.08 | 86 | 1011.4 |
| 20260505085206 | 56 | 212 | 1.0 | 1.0 | 0.05 | 0.08 | 0.08 | 84 | 1011.5 |
| 20260505084703 | 54 | 193 | 1.0 | 2.0 | 0.00 | 0.07 | 0.07 | 84 | 1011.5 |
| 20260505084201 | 55 | 217 | 1.0 | 3.0 | 0.00 | 0.07 | 0.07 | 85 | 1011.6 |
| 20260505083658 | 55 | 240 | 0.0 | 1.0 | 0.00 | 0.07 | 0.07 | 87 | 1011.4 |
| 20260505083155 | 53 | 250 | 0.0 | 0.0 | 0.00 | 0.07 | 0.07 | 92 | 1011.5 |
| 20260505082651 | 53 | 207 | 2.0 | 2.0 | 0.00 | 0.07 | 0.07 | 93 | 1011.5 |
| 20260505082148 | 51 | 217 | 4.0 | 6.0 | 0.00 | 0.07 | 0.07 | 96 | 1011.5 |
| 20260505081644 | 52 | 213 | 0.0 | 0.0 | 0.00 | 0.07 | 0.07 | 94 | 1011.0 |
| 20260505081142 | 52 | 225 | 0.0 | 2.0 | 0.00 | 0.07 | 0.07 | 94 | 1010.7 |
| 20260505080638 | 51 | 225 | 0.0 | 0.0 | 0.00 | 0.07 | 0.07 | 96 | 1010.7 |
| 20260505080134 | 51 | 224 | 0.0 | 0.0 | 0.00 | 0.07 | 0.07 | 96 | 1010.6 |
| 20260505075631 | 51 | 223 | 0.0 | 1.0 | 0.00 | 0.07 | 0.07 | 97 | 1010.7 |
| 20260505075127 | 51 | 256 | 0.0 | 0.0 | 0.00 | 0.07 | 0.07 | 96 | 1010.7 |
| 20260505074624 | 50 | 256 | 0.0 | 0.0 | 0.00 | 0.07 | 0.07 | 96 | 1010.6 |
| 20260505074121 | 50 | 256 | 0.0 | 0.0 | 0.00 | 0.07 | 0.07 | 95 | 1010.6 |
| 20260505073619 | 51 | 256 | 0.0 | 0.0 | 0.00 | 0.07 | 0.07 | 94 | 1010.6 |
| 20260505073117 | 51 | 256 | 0.0 | 0.0 | 0.00 | 0.07 | 0.07 | 93 | 1010.6 |
| 20260505072612 | 52 | 256 | 0.0 | 0.0 | 0.00 | 0.07 | 0.07 | 92 | 1010.6 |
| 20260505072109 | 53 | 256 | 0.0 | 0.0 | 0.00 | 0.07 | 0.07 | 90 | 1010.4 |
| 20260505071604 | 54 | 256 | 0.0 | 0.0 | 0.00 | 0.07 | 0.07 | 89 | 1010.3 |
| 20260505071103 | 55 | 256 | 0.0 | 1.0 | 0.00 | 0.07 | 0.07 | 88 | 1010.6 |
| 20260505070600 | 55 | 214 | 1.0 | 1.0 | 0.00 | 0.07 | 0.07 | 89 | 1010.6 |
| 20260505070056 | 56 | 214 | 0.0 | 0.0 | 0.00 | 0.07 | 0.07 | 88 | 1010.6 |
| 20260505065552 | 57 | 214 | 0.0 | 1.0 | 0.19 | 0.07 | 0.07 | 85 | 1010.8 |
| 20260505065049 | 58 | 221 | 2.0 | 4.0 | 0.35 | 0.07 | 0.07 | 83 | 1011.0 |
| 20260505064545 | 59 | 267 | 1.0 | 6.0 | 0.19 | 0.03 | 0.03 | 76 | 1011.2 |
| 20260505064044 | 59 | 229 | 1.0 | 1.0 | 0.07 | 0.01 | 0.01 | 72 | 1011.1 |
| 20260505063541 | 57 | 237 | 0.0 | 4.0 | 0.00 | 0.00 | 0.00 | 71 | 1010.7 |
| 20260505063037 | 55 | 215 | 0.0 | 0.0 | 0.00 | 0.00 | 0.00 | 75 | 1010.7 |
| 20260505062533 | 54 | 215 | 0.0 | 0.0 | 0.00 | 0.00 | 0.00 | 79 | 1010.6 |
| 20260505062031 | 54 | 224 | 0.0 | 0.0 | 0.00 | 0.00 | 0.00 | 79 | 1010.6 |
| 20260505061528 | 54 | 224 | 0.0 | 0.0 | 0.00 | 0.00 | 0.00 | 80 | 1010.4 |
| 20260505061026 | 53 | 225 | 0.0 | 0.0 | 0.00 | 0.00 | 0.00 | 80 | 1010.5 |
| 20260505060523 | 53 | 224 | 0.0 | 0.0 | 0.00 | 0.00 | 0.00 | 81 | 1010.6 |
| 20260505060020 | 54 | 224 | 0.0 | 0.0 | 0.00 | 0.00 | 0.00 | 79 | 1010.7 |
| 20260505055510 | 55 | 227 | 0.0 | 0.0 | 0.00 | 0.00 | 0.00 | 77 | 1010.7 |
| 20260505055007 | 55 | 224 | 0.0 | 0.0 | 0.00 | 0.00 | 0.00 | 77 | 1010.8 |
| 20260505054504 | 56 | 224 | 0.0 | 0.0 | 0.00 | 0.00 | 0.00 | 76 | 1011.1 |
| 20260505054002 | 57 | 224 | 0.0 | 0.0 | 0.00 | 0.00 | 0.00 | 73 | 1011.0 |
| 20260505053459 | 57 | 247 | 0.0 | 0.0 | 0.00 | 0.00 | 0.00 | 73 | 1011.0 |
| 20260505052955 | 58 | 277 | 0.0 | 0.0 | 0.00 | 0.00 | 0.00 | 72 | 1011.0 |
| 20260505052453 | 58 | 210 | 0.0 | 0.0 | 0.00 | 0.00 | 0.00 | 72 | 1010.9 |
| 20260505051950 | 58 | 215 | 0.0 | 0.0 | 0.00 | 0.00 | 0.00 | 71 | 1011.2 |
| 20260505051447 | 58 | 205 | 0.0 | 0.0 | 0.00 | 0.00 | 0.00 | 70 | 1010.8 |
| 20260505050945 | 59 | 204 | 0.0 | 0.0 | 0.00 | 0.00 | 0.00 | 69 | 1011.1 |
| 20260505050443 | 59 | 204 | 0.0 | 0.0 | 0.00 | 0.00 | 0.00 | 70 | 1010.9 |
| 20260505041411 | 59 | 217 | 0.0 | 0.0 | 0.00 | 0.00 | 0.00 | 71 | 1010.8 |
| 20260505040908 | 59 | 221 | 0.0 | 0.0 | 0.00 | 0.00 | 0.00 | 70 | 1010.8 |
| 20260505040405 | 60 | 201 | 0.0 | 0.0 | 0.00 | 0.00 | 0.00 | 69 | 1010.7 |
| 20260505035902 | 60 | 210 | 0.0 | 1.0 | 0.00 | 0.00 | 0.00 | 68 | 1010.7 |
| 20260505035358 | 60 | 213 | 0.0 | 0.0 | 0.00 | 0.00 | 0.00 | 68 | 1010.8 |
| 20260505034855 | 59 | 352 | 0.0 | 0.0 | 0.00 | 0.00 | 0.00 | 70 | 1010.7 |
| 20260505034352 | 59 | 221 | 0.0 | 0.0 | 0.00 | 0.00 | 0.00 | 71 | 1010.7 |
| 20260505033849 | 58 | 198 | 0.0 | 2.0 | 0.00 | 0.00 | 0.00 | 71 | 1010.9 |
| 20260505033345 | 58 | 229 | 0.0 | 0.0 | 0.00 | 0.00 | 0.00 | 72 | 1010.8 |
| 20260505032844 | 58 | 229 | 0.0 | 0.0 | 0.00 | 0.00 | 0.00 | 71 | 1011.0 |
| 20260505032340 | 58 | 235 | 0.0 | 0.0 | 0.00 | 0.00 | 0.00 | 71 | 1010.8 |
| 20260505031837 | 59 | 222 | 0.0 | 0.0 | 0.00 | 0.00 | 0.00 | 71 | 1010.8 |
| 20260505031333 | 59 | 232 | 0.0 | 0.0 | 0.00 | 0.00 | 0.00 | 70 | 1011.0 |
| 20260505030831 | 60 | 201 | 0.0 | 1.0 | 0.00 | 0.00 | 0.00 | 68 | 1011.0 |
| 20260505030327 | 59 | 202 | 1.0 | 2.0 | 0.00 | 0.00 | 0.00 | 68 | 1010.9 |
| 20260505025822 | 60 | 221 | 0.0 | 0.0 | 0.00 | 0.00 | 0.00 | 69 | 1010.8 |
| 20260505025320 | 60 | 241 | 0.0 | 1.0 | 0.00 | 0.00 | 0.00 | 68 | 1010.9 |
| 20260505024818 | 61 | 202 | 0.0 | 1.0 | 0.00 | 0.00 | 0.00 | 68 | 1011.0 |
| 20260505024316 | 60 | 150 | 2.0 | 3.0 | 0.00 | 0.00 | 0.00 | 67 | 1011.0 |
| 20260505023813 | 60 | 255 | 0.0 | 1.0 | 0.00 | 0.00 | 0.00 | 68 | 1011.0 |
| 20260505023310 | 60 | 220 | 1.0 | 3.0 | 0.00 | 0.00 | 0.00 | 68 | 1011.1 |
| 20260505022807 | 59 | 217 | 0.0 | 0.0 | 0.00 | 0.00 | 0.00 | 69 | 1011.0 |
| 20260505022304 | 60 | 217 | 0.0 | 0.0 | 0.00 | 0.00 | 0.00 | 68 | 1011.0 |
| 20260505021801 | 60 | 218 | 0.0 | 3.0 | 0.00 | 0.00 | 0.00 | 68 | 1011.0 |
| 20260505021258 | 60 | 245 | 0.0 | 2.0 | 0.00 | 0.00 | 0.00 | 68 | 1011.3 |
| 20260505020753 | 60 | 220 | 0.0 | 0.0 | 0.00 | 0.00 | 0.00 | 69 | 1011.3 |
| 20260505020248 | 61 | 220 | 0.0 | 1.0 | 0.00 | 0.00 | 0.00 | 67 | 1010.8 |
| 20260505015746 | 61 | 227 | 0.0 | 1.0 | 0.00 | 0.00 | 0.00 | 67 | 1010.8 |
| 20260505015243 | 61 | 217 | 0.0 | 0.0 | 0.00 | 0.00 | 0.00 | 66 | 1011.0 |
| 20260505014740 | 61 | 225 | 0.0 | 2.0 | 0.00 | 0.00 | 0.00 | 68 | 1011.0 |
| 20260505014238 | 60 | 234 | 0.0 | 0.0 | 0.00 | 0.00 | 0.00 | 69 | 1011.0 |
| 20260505013734 | 60 | 234 | 0.0 | 0.0 | 0.00 | 0.00 | 0.00 | 69 | 1010.9 |
| 20260505013231 | 60 | 234 | 0.0 | 0.0 | 0.00 | 0.00 | 0.00 | 70 | 1010.9 |
| 20260505012729 | 61 | 234 | 0.0 | 0.0 | 0.00 | 0.00 | 0.00 | 69 | 1010.7 |
| 20260505012226 | 61 | 234 | 0.0 | 0.0 | 0.00 | 0.00 | 0.00 | 67 | 1010.5 |
| 20260505011722 | 62 | 234 | 0.0 | 0.0 | 0.00 | 0.00 | 0.00 | 65 | 1010.6 |
| 20260505011220 | 62 | 214 | 2.0 | 2.0 | 0.00 | 0.00 | 0.00 | 63 | 1010.6 |
| 20260505010715 | 62 | 214 | 0.0 | 1.0 | 0.00 | 0.00 | 0.00 | 62 | 1010.4 |
| 20260505010211 | 62 | 237 | 0.0 | 0.0 | 0.00 | 0.00 | 0.00 | 62 | 1010.7 |
| 20260505005708 | 62 | 237 | 0.0 | 4.0 | 0.00 | 0.00 | 0.00 | 62 | 1010.5 |
| 20260505005205 | 63 | 216 | 0.0 | 2.0 | 0.00 | 0.00 | 0.00 | 60 | 1010.5 |
| 20260505004702 | 62 | 205 | 1.0 | 4.0 | 0.00 | 0.00 | 0.00 | 64 | 1010.5 |
| 20260505004159 | 62 | 209 | 0.0 | 0.0 | 0.00 | 0.00 | 0.00 | 62 | 1010.5 |
| 20260505003656 | 63 | 209 | 0.0 | 1.0 | 0.00 | 0.00 | 0.00 | 61 | 1010.4 |
| 20260505003153 | 64 | 209 | 0.0 | 0.0 | 0.00 | 0.00 | 0.00 | 58 | 1010.4 |
| 20260505002650 | 65 | 169 | 3.0 | 4.0 | 0.00 | 0.00 | 0.00 | 56 | 1010.4 |
| 20260505002147 | 65 | 222 | 1.0 | 6.0 | 0.00 | 0.00 | 0.00 | 58 | 1010.0 |
| 20260505001643 | 65 | 217 | 0.0 | 1.0 | 0.00 | 0.00 | 0.00 | 58 | 1010.3 |
| 20260505001141 | 64 | 225 | 0.0 | 0.0 | 0.00 | 0.00 | 0.00 | 59 | 1010.6 |
| 20260505000638 | 65 | 148 | 3.0 | 4.0 | 0.00 | 0.00 | 0.00 | 56 | 1010.4 |
| 20260505000137 | 65 | 237 | 0.0 | 3.0 | 0.00 | 0.00 | 0.00 | 57 | 1010.3 |
| 20260504235632 | 65 | 260 | 1.0 | 1.0 | 0.00 | 0.00 | 0.00 | 56 | 1009.9 |
| 20260504235128 | 66 | 193 | 0.0 | 3.0 | 0.00 | 0.00 | 0.00 | 56 | 1010.1 |
| 20260504234626 | 65 | 260 | 2.0 | 4.0 | 0.00 | 0.00 | 0.00 | 55 | 1010.1 |
| 20260504234123 | 66 | 187 | 2.0 | 3.0 | 0.00 | 0.00 | 0.00 | 57 | 1010.0 |
| 20260504233619 | 66 | 167 | 0.0 | 1.0 | 0.00 | 0.00 | 0.00 | 54 | 1010.1 |
| 20260504233115 | 67 | 219 | 0.0 | 3.0 | 0.00 | 0.00 | 0.00 | 52 | 1010.0 |
| 20260504232613 | 68 | 212 | 2.0 | 6.0 | 0.00 | 0.00 | 0.00 | 52 | 1010.1 |
| 20260504232110 | 67 | 253 | 2.0 | 3.0 | 0.00 | 0.00 | 0.00 | 52 | 1010.1 |
| 20260504231606 | 67 | 237 | 1.0 | 7.0 | 0.00 | 0.00 | 0.00 | 53 | 1010.0 |
| 20260504231102 | 67 | 241 | 1.0 | 1.0 | 0.00 | 0.00 | 0.00 | 54 | 1009.9 |
| 20260504230558 | 67 | 218 | 1.0 | 2.0 | 0.00 | 0.00 | 0.00 | 53 | 1009.9 |
| 20260504230053 | 67 | 239 | 2.0 | 4.0 | 0.00 | 0.00 | 0.00 | 51 | 1009.9 |
| 20260504225550 | 68 | 197 | 3.0 | 4.0 | 0.00 | 0.00 | 0.00 | 50 | 1009.9 |
| 20260504225046 | 68 | 224 | 0.0 | 2.0 | 0.00 | 0.00 | 0.00 | 50 | 1009.9 |
| 20260504224543 | 68 | 223 | 3.0 | 6.0 | 0.00 | 0.00 | 0.00 | 50 | 1009.9 |
| 20260504224040 | 68 | 219 | 1.0 | 3.0 | 0.00 | 0.00 | 0.00 | 49 | 1009.8 |
| 20260504223537 | 68 | 211 | 4.0 | 7.0 | 0.00 | 0.00 | 0.00 | 50 | 1009.7 |
| 20260504223033 | 69 | 194 | 2.0 | 4.0 | 0.00 | 0.00 | 0.00 | 48 | 1009.7 |
| 20260504222530 | 69 | 275 | 0.0 | 2.0 | 0.00 | 0.00 | 0.00 | 47 | 1009.8 |
| 20260504222027 | 71 | 220 | 6.0 | 8.0 | 0.00 | 0.00 | 0.00 | 44 | 1009.9 |
| 20260504221524 | 71 | 220 | 0.0 | 4.0 | 0.00 | 0.00 | 0.00 | 46 | 1010.0 |
| 20260504221021 | 71 | 191 | 4.0 | 8.0 | 0.00 | 0.00 | 0.00 | 42 | 1009.9 |
| 20260504220518 | 71 | 224 | 2.0 | 4.0 | 0.00 | 0.00 | 0.00 | 43 | 1009.8 |
| 20260504220015 | 71 | 250 | 2.0 | 8.0 | 0.00 | 0.00 | 0.00 | 42 | 1009.9 |
| 20260504215511 | 71 | 252 | 0.0 | 1.0 | 0.00 | 0.00 | 0.00 | 44 | 1010.0 |
| 20260504215009 | 69 | 237 | 0.0 | 2.0 | 0.00 | 0.00 | 0.00 | 48 | 1010.0 |
| 20260504214504 | 69 | 302 | 4.0 | 6.0 | 0.00 | 0.00 | 0.00 | 48 | 1009.8 |
| 20260504214001 | 70 | 218 | 5.0 | 6.0 | 0.00 | 0.00 | 0.00 | 49 | 1009.8 |
| 20260504213457 | 69 | 189 | 1.0 | 3.0 | 0.00 | 0.00 | 0.00 | 51 | 1010.0 |
| 20260504212955 | 71 | 188 | 3.0 | 10.0 | 0.00 | 0.00 | 0.00 | 47 | 1009.8 |
| 20260504212450 | 69 | 243 | 1.0 | 2.0 | 0.00 | 0.00 | 0.00 | 48 | 1010.0 |
| 20260504211948 | 69 | 242 | 2.0 | 4.0 | 0.00 | 0.00 | 0.00 | 49 | 1009.8 |
| 20260504211444 | 70 | 203 | 0.0 | 6.0 | 0.00 | 0.00 | 0.00 | 49 | 1009.7 |
| 20260504210942 | 72 | 270 | 3.0 | 8.0 | 0.00 | 0.00 | 0.00 | 44 | 1009.7 |
| 20260504210439 | 70 | 167 | 2.0 | 3.0 | 0.00 | 0.00 | 0.00 | 49 | 1009.6 |
| 20260504205936 | 70 | 184 | 2.0 | 6.0 | 0.00 | 0.00 | 0.00 | 47 | 1009.9 |
| 20260504205433 | 69 | 180 | 1.0 | 3.0 | 0.00 | 0.00 | 0.00 | 51 | 1009.8 |
| 20260504204931 | 69 | 231 | 2.0 | 9.0 | 0.00 | 0.00 | 0.00 | 47 | 1009.6 |
| 20260504204429 | 69 | 173 | 5.0 | 11.0 | 0.00 | 0.00 | 0.00 | 47 | 1009.7 |
| 20260504203928 | 70 | 275 | 5.0 | 10.0 | 0.00 | 0.00 | 0.00 | 48 | 1009.6 |
| 20260504203425 | 69 | 211 | 1.0 | 7.0 | 0.00 | 0.00 | 0.00 | 54 | 1009.7 |
| 20260504202921 | 69 | 153 | 2.0 | 4.0 | 0.00 | 0.00 | 0.00 | 49 | 1009.7 |
| 20260504202418 | 69 | 241 | 1.0 | 6.0 | 0.00 | 0.00 | 0.00 | 50 | 1009.7 |
| 20260504201915 | 69 | 250 | 1.0 | 7.0 | 0.00 | 0.00 | 0.00 | 54 | 1009.8 |
| 20260504201412 | 71 | 179 | 2.0 | 6.0 | 0.00 | 0.00 | 0.00 | 47 | 1009.8 |
| 20260504200910 | 70 | 210 | 1.0 | 3.0 | 0.00 | 0.00 | 0.00 | 50 | 1009.7 |
| 20260504200406 | 69 | 206 | 1.0 | 6.0 | 0.00 | 0.00 | 0.00 | 49 | 1009.9 |
| 20260504195903 | 70 | 153 | 3.0 | 6.0 | 0.00 | 0.00 | 0.00 | 51 | 1009.9 |
| 20260504195358 | 69 | 239 | 1.0 | 8.0 | 0.00 | 0.00 | 0.00 | 53 | 1009.7 |
| 20260504194855 | 71 | 174 | 4.0 | 10.0 | 0.00 | 0.00 | 0.00 | 49 | 1009.9 |
| 20260504194351 | 70 | 153 | 1.0 | 3.0 | 0.00 | 0.00 | 0.00 | 52 | 1010.0 |
| 20260504193847 | 68 | 156 | 4.0 | 8.0 | 0.00 | 0.00 | 0.00 | 50 | 1010.0 |
| 20260504193344 | 68 | 196 | 2.0 | 3.0 | 0.00 | 0.00 | 0.00 | 50 | 1010.4 |
| 20260504192844 | 68 | 209 | 0.0 | 1.0 | 0.00 | 0.00 | 0.00 | 52 | 1010.3 |
| 20260504192341 | 69 | 233 | 3.0 | 4.0 | 0.00 | 0.00 | 0.00 | 47 | 1010.4 |
| 20260504191839 | 68 | 224 | 4.0 | 7.0 | 0.00 | 0.00 | 0.00 | 50 | 1010.5 |
| 20260504191337 | 68 | 166 | 5.0 | 8.0 | 0.00 | 0.00 | 0.00 | 51 | 1010.6 |
| 20260504190832 | 69 | 221 | 2.0 | 3.0 | 0.00 | 0.00 | 0.00 | 49 | 1010.7 |
| 20260504190328 | 70 | 143 | 2.0 | 7.0 | 0.00 | 0.00 | 0.00 | 48 | 1010.7 |
| 20260504185825 | 70 | 208 | 0.0 | 4.0 | 0.00 | 0.00 | 0.00 | 46 | 1010.8 |
| 20260504185322 | 68 | 183 | 4.0 | 7.0 | 0.00 | 0.00 | 0.00 | 47 | 1010.8 |
| 20260504184818 | 68 | 208 | 2.0 | 7.0 | 0.00 | 0.00 | 0.00 | 49 | 1011.0 |
| 20260504184314 | 68 | 211 | 2.0 | 8.0 | 0.00 | 0.00 | 0.00 | 50 | 1011.0 |
| 20260504183809 | 68 | 233 | 3.0 | 9.0 | 0.00 | 0.00 | 0.00 | 49 | 1011.2 |
| 20260504183307 | 67 | 186 | 3.0 | 4.0 | 0.00 | 0.00 | 0.00 | 47 | 1011.1 |
| 20260504182805 | 68 | 162 | 3.0 | 7.0 | 0.00 | 0.00 | 0.00 | 50 | 1011.2 |
| 20260504182304 | 67 | 227 | 0.0 | 3.0 | 0.00 | 0.00 | 0.00 | 50 | 1011.1 |
| 20260504181759 | 67 | 155 | 3.0 | 6.0 | 0.00 | 0.00 | 0.00 | 49 | 1011.1 |
| 20260504181256 | 67 | 234 | 0.0 | 1.0 | 0.00 | 0.00 | 0.00 | 50 | 1011.1 |
| 20260504180755 | 67 | 199 | 2.0 | 4.0 | 0.00 | 0.00 | 0.00 | 46 | 1011.4 |
| 20260504180254 | 68 | 177 | 5.0 | 6.0 | 0.00 | 0.00 | 0.00 | 48 | 1011.2 |
| 20260504175751 | 68 | 194 | 2.0 | 7.0 | 0.00 | 0.00 | 0.00 | 49 | 1011.5 |
| 20260504175248 | 67 | 218 | 1.0 | 8.0 | 0.00 | 0.00 | 0.00 | 50 | 1011.3 |
| 20260504174745 | 68 | 154 | 2.0 | 3.0 | 0.00 | 0.00 | 0.00 | 45 | 1011.4 |
| 20260504174243 | 68 | 202 | 0.0 | 2.0 | 0.00 | 0.00 | 0.00 | 49 | 1011.3 |
| 20260504173739 | 68 | 165 | 4.0 | 6.0 | 0.00 | 0.00 | 0.00 | 47 | 1011.3 |
| 20260504173237 | 68 | 202 | 1.0 | 6.0 | 0.00 | 0.00 | 0.00 | 48 | 1011.5 |
| 20260504172733 | 67 | 187 | 2.0 | 8.0 | 0.00 | 0.00 | 0.00 | 49 | 1011.7 |
| 20260504172230 | 69 | 164 | 6.0 | 11.0 | 0.00 | 0.00 | 0.00 | 45 | 1011.8 |
| 20260504171726 | 70 | 175 | 4.0 | 8.0 | 0.00 | 0.00 | 0.00 | 44 | 1012.0 |
| 20260504171223 | 68 | 228 | 2.0 | 10.0 | 0.00 | 0.00 | 0.00 | 49 | 1011.8 |
| 20260504170720 | 68 | 228 | 2.0 | 7.0 | 0.00 | 0.00 | 0.00 | 48 | 1011.8 |
| 20260504170217 | 67 | 207 | 2.0 | 6.0 | 0.00 | 0.00 | 0.00 | 47 | 1011.7 |
| 20260504160136 | 64 | 195 | 2.0 | 6.0 | 0.00 | 0.00 | 0.00 | 50 | 1012.8 |
| 20260504151103 | 63 | 174 | 2.0 | 10.0 | 0.00 | 0.00 | 0.00 | 50 | 1013.0 |
| 20260504150601 | 63 | 251 | 0.0 | 1.0 | 0.00 | 0.00 | 0.00 | 50 | 1012.8 |
| 20260504141020 | 59 | 170 | 3.0 | 9.0 | 0.00 | 0.00 | 0.00 | 51 | 1013.3 |
| 20260504140517 | 59 | 156 | 4.0 | 8.0 | 0.00 | 0.00 | 0.00 | 52 | 1013.5 |
| 20260504130442 | 55 | 206 | 1.0 | 4.0 | 0.00 | 0.00 | 0.00 | 59 | 1013.6 |